Home   Weather   Hamburg   Past weeks

Flag for Germany Past Weather in Hamburg, Hamburg, Germany — Yesterday and Last 2 Weeks

Now
77 °F

Passing clouds.


Feels Like: 78 °F
Forecast: 55 / 69 °F
Wind: 9 mph from South

Location: Hamburg-Fuhlsbuettel

Current Time: Aug 31, 2016 at 6:15:32 PM

Latest Report: Aug 31, 2016 at 5:20 PM


Visibility: N/A

Pressure: 30.09 "Hg

Humidity: 32%

Dew Point: 45 °F

Location of HamburgLocation

Past Weather in Hamburg — Graph

°F

Hamburg Temperature Yesterday

Maximum temperature yesterday: 70 °F (at 2:20 PM)
Minimum temperature yesterday: 52 °F (at 4:20 AM)
Average temperature yesterday: 61 °F

High & Low Weather Summary for the Past Weeks

 TemperatureHumidityPressure
High88 °F (Aug 25, 4:20 PM)100% (Aug 17, 1:50 AM)30.30 "Hg (Aug 17, 1:50 AM)
Low43 °F (Aug 17, 5:50 AM)29% (Aug 25, 5:20 PM)29.80 "Hg (Aug 20, 12:20 AM)
Average65 °F76%30.05 "Hg
* Reported Aug 16 5:20 PM — Aug 31 5:20 PM, Hamburg, Weather by CustomWeather, © 2016

Note: Actual official high and low records may vary slightly from our data, if they occured in-between our weather recording intervals... More about our weather records

Advertising

Hamburg Weather History for the Previous 24 Hours

Scroll right to see more
 ConditionsComfort  
Time TempWeatherWind HumidityBarometerVisibility
5:20 PM
Wed, Aug 31
77 °FPassing clouds.9 mph32%30.09 "HgN/A
4:50 PM77 °FSunny.13 mph32%30.09 "Hg10 mi
4:20 PM77 °FPassing clouds.10 mph32%30.09 "HgN/A
3:50 PM77 °FPassing clouds.10 mph34%30.09 "HgN/A
3:20 PM77 °FSunny.13 mph36%30.09 "Hg10 mi
2:50 PM75 °FSunny.13 mph41%30.12 "Hg10 mi
2:20 PM75 °FPassing clouds.8 mph47%30.12 "HgN/A
1:50 PM73 °FSunny.12 mph44%30.15 "Hg10 mi
1:20 PM73 °FPassing clouds.9 mph47%30.15 "HgN/A
12:50 PM73 °FPassing clouds.10 mph50%30.15 "HgN/A
12:20 PM72 °FPassing clouds.10 mph50%30.15 "HgN/A
11:50 AM72 °FScattered clouds.9 mph53%30.18 "HgN/A
11:20 AM70 °FSunny.10 mph53%30.18 "Hg10 mi
10:50 AM70 °FSunny.9 mph57%30.18 "Hg10 mi
10:20 AM68 °FPassing clouds.8 mph60%30.18 "HgN/A
9:50 AM66 °FSunny.8 mph64%30.18 "Hg10 mi
9:20 AM64 °FSunny.7 mph68%30.21 "Hg10 mi
8:50 AM63 °FSunny.7 mph77%30.21 "Hg10 mi
8:20 AM61 °FPassing clouds.6 mph77%30.21 "HgN/A
7:50 AM59 °FPassing clouds.3 mph82%30.21 "HgN/A
7:20 AM57 °FFog.3 mph88%30.21 "HgN/A
6:50 AM55 °FFog.3 mph88%30.21 "HgN/A
6:20 AM55 °FFog.2 mph88%30.21 "HgN/A
5:50 AM54 °FFog.3 mph94%30.21 "HgN/A
5:20 AM55 °FFog.2 mph94%30.21 "HgN/A
4:50 AM55 °FFog.3 mph88%30.24 "HgN/A
4:20 AM55 °FFog.2 mph94%30.24 "HgN/A
3:50 AM55 °FFog.2 mph94%30.24 "HgN/A
3:20 AM54 °FFog.3 mph100%30.24 "HgN/A
2:50 AM55 °FFog.2 mph94%30.24 "HgN/A
2:20 AM54 °FFog.3 mph100%30.24 "HgN/A
1:50 AM54 °FFog.1 mph100%30.24 "HgN/A
1:20 AM54 °FFog.2 mph100%30.24 "HgN/A
12:50 AM54 °FFog.1 mph100%30.24 "HgN/A
12:20 AM55 °FFog.No wind100%30.24 "HgN/A
11:50 PM
Tue, Aug 30
55 °FFog.No wind100%30.24 "HgN/A
11:20 PM57 °FClear.1 mph94%30.24 "Hg10 mi
10:50 PM57 °FClear.1 mph94%30.24 "Hg10 mi
10:20 PM57 °FClear.1 mph100%30.27 "Hg10 mi
9:50 PM59 °FClear.No wind94%30.27 "Hg10 mi
9:20 PM59 °FClear.1 mph94%30.27 "Hg10 mi
8:50 PM59 °FPassing clouds.1 mph94%30.27 "HgN/A
8:20 PM63 °FPassing clouds.2 mph77%30.27 "HgN/A
7:50 PM64 °FPassing clouds.5 mph73%30.27 "HgN/A
7:20 PM66 °FPassing clouds.8 mph68%30.24 "HgN/A
6:50 PM68 °FPassing clouds.8 mph60%30.24 "HgN/A
6:20 PM66 °FPassing clouds.9 mph68%30.27 "HgN/A
Weather by CustomWeather, © 2016

See weather overviewHow to use our weather pages